Starlink 34067

operational
NORAD ID: 64115 Int'l Des: 2025-110 Owner: SPXS Country: US Constellation: starlink
LEOCIRCULAR

关于 Starlink 34067

正在加载描述...

实时位置

正在加载3D地球...

即将过境

高度历史

Altitude vs Time

uPlot chart will show altitude changes over time

两行轨道根数

1 64115U 25110V 25354.38529613 .00019376 00000-0 66440-3 0 9991
2 64115 53.1603 34.9102 0001112 63.6627 296.4488 15.30209781 33745
Epoch: Dec 20, 2025 • Age: 15 hours

当前状态

高度 491.1 km
速度 7.62 km/s
星下点 -45.63°S, 117.23°W
发射日期 May 23, 2025
运行时间 0.5 years
类型 internet

技术详情

分类 Payload
质量 575.00 kg
干质量 530.00 kg
总质量 575.00 kg
长度 0.30 m
直径 4.10 m
跨度 29.00 m
形状 Box + pan
制造商 SPXS
平台类型 Starlink V2MO
阶段状态 In Orbit
所有者/国家 SPXS/US

大型星座

Loading constellations...